Change the Weather History Date:

Monday, June 10, 2013

  Actual Average (EDQM) Record (EDQM)
Temperature  
Mean Temperature 55 °F -  
Max Temperature 60 °F 66 °F 89 °F (2014)
Min Temperature 50 °F 50 °F 42 °F (2005)
Degree Days  
Heating Degree Days 10    
Growing Degree Days 5 (Base 50)    
Moisture  
Dew Point 53 °F    
Average Humidity 90    
Maximum Humidity 100    
Minimum Humidity 77    
Precipitation  
Precipitation 0.00 in - - ()
Sea Level Pressure  
Sea Level Pressure 29.80 in    
Wind  
Wind Speed 3 mph ()    
Max Wind Speed 12 mph    
Max Gust Speed -    
Visibility 5.1 miles    
Events Fog , Rain , Thunderstorm    
Averages and records for this station are not official NWS values.
T = Trace of Precipitation, MM = Missing Value Source: Averaged Metar Reports

Daily Weather History Graph

Daily Weather History Graph

Search for Another Location

Airport or City:

Trip Planner

Search our weather history database for the weather conditions in past years. The results will help you decide how hot, cold, wet, or windy it might be!

Date:

Astronomy

Jun. 10, 2013 Rise Set
Actual Time 4:58 AM CEST 9:17 PM CEST
Civil Twilight 4:14 AM CEST 10:02 PM CEST
Nautical Twilight 3:09 AM CEST 11:07 PM CEST
Astronomical Twilight 1:40 AM CEST 12:35 AM CEST
Moon 6:40 AM CEST (6/10) 10:22 PM CEST (6/10)
Length of Visible Light 17h 47m
Length of Day
16h 18m
Waxing Crescent, 3% of the Moon is Illuminated
Jun 10
Waxing Crescent
Jun 16
First Quarter
Jun 23
Full
Jun 30
Last Quarter
Jul 8
New

Hourly Weather History & Observations

Time (CEST) Temp. Dew Point Humidity Pressure Visibility Wind Dir Wind Speed Gust Speed Precip Events Conditions
12:00 AM 53.6 °F 51.8 °F 94% 29.77 in - Variable 1.2 mph - N/A   Clear
1:00 AM 53.6 °F 51.8 °F 94% 29.77 in - Calm Calm - N/A   Clear
2:00 AM 51.8 °F 51.8 °F 100% 29.74 in - Variable 1.2 mph - N/A   Clear
3:00 AM 51.8 °F 50.0 °F 94% 29.74 in - Calm Calm - N/A   Clear
4:00 AM 51.8 °F 50.0 °F 94% 29.74 in - SSW 2.3 mph - N/A   Clear
5:00 AM 50.0 °F 48.2 °F 94% 29.74 in 6.2 mi Variable 1.2 mph - N/A Fog Shallow Fog
6:00 AM 51.8 °F 51.8 °F 100% 29.74 in - Variable 2.3 mph - N/A   Clear
7:00 AM 53.6 °F 51.8 °F 94% 29.74 in - SSW 3.5 mph - N/A   Clear
8:00 AM 57.2 °F 53.6 °F 88% 29.77 in - Calm Calm - N/A   Clear
8:30 AM 57.2 °F 53.6 °F 88% 29.77 in 6.2 mi Variable 1.2 mph - N/A   Scattered Clouds
9:00 AM 57.2 °F 53.6 °F 88% 29.77 in 6.2 mi Variable 1.2 mph - N/A   Scattered Clouds
9:30 AM 59.0 °F 53.6 °F 82% 29.77 in 6.2 mi NE 5.8 mph - N/A Rain Light Rain
10:00 AM 59.0 °F 53.6 °F 82% 29.77 in 6.2 mi NE 5.8 mph - N/A   Scattered Clouds
10:30 AM 59.0 °F 53.6 °F 82% 29.77 in 6.2 mi NE 6.9 mph - N/A   Scattered Clouds
11:00 AM 60.8 °F 53.6 °F 77% 29.77 in 6.2 mi NNE 5.8 mph - N/A   Mostly Cloudy
11:30 AM 60.8 °F 53.6 °F 77% 29.77 in 6.2 mi NE 6.9 mph - N/A   Mostly Cloudy
12:00 PM 60.8 °F 53.6 °F 77% 29.77 in 6.2 mi NNE 6.9 mph - N/A   Mostly Cloudy
12:02 PM 60.8 °F 53.6 °F 77% 29.77 in 6.2 mi NE 6.9 mph - N/A Rain Light Rain Showers
12:30 PM 60.8 °F 55.4 °F 82% 29.77 in 6.2 mi NE 3.5 mph - N/A   Mostly Cloudy
12:50 PM 60.8 °F 53.6 °F 77% 29.77 in 6.2 mi ENE 6.9 mph - N/A Rain Light Rain Showers
1:00 PM 59.0 °F 55.4 °F 88% 29.80 in 1.6 mi ENE 11.5 mph - N/A Rain Rain Showers
1:09 PM 55.4 °F 55.4 °F 100% 29.80 in 3.1 mi NE 8.1 mph - N/A Rain , Thunderstorm Rain Showers
1:30 PM 55.4 °F 55.4 °F 100% 29.80 in 4.3 mi NE 6.9 mph - N/A Rain , Thunderstorm Light Rain Showers
1:41 PM 57.2 °F 55.4 °F 94% 29.80 in 4.3 mi ENE 8.1 mph - N/A Rain , Thunderstorm Light Thunderstorms and Rain
2:00 PM 57.2 °F 55.4 °F 94% 29.80 in 3.7 mi ENE 6.9 mph - N/A Rain , Thunderstorm Light Rain Showers
2:30 PM 57.2 °F 55.4 °F 94% 29.80 in 3.7 mi NNE 3.5 mph - N/A Rain , Thunderstorm Light Rain Showers
3:00 PM 57.2 °F 55.4 °F 94% 29.80 in 3.7 mi NNE 4.6 mph - N/A Rain Light Rain Showers
3:08 PM 57.2 °F 55.4 °F 94% 29.83 in 2.5 mi North 5.8 mph - N/A Rain Light Rain Showers
3:30 PM 57.2 °F 55.4 °F 94% 29.83 in 3.7 mi North 6.9 mph - N/A Rain Light Rain
4:00 PM 55.4 °F 53.6 °F 94% 29.83 in 4.3 mi North 4.6 mph - N/A Rain Light Rain
4:17 PM 55.4 °F 53.6 °F 94% 29.83 in 2.5 mi North 4.6 mph - N/A Rain Rain
4:30 PM 55.4 °F 53.6 °F 94% 29.83 in 3.1 mi NNE 3.5 mph - N/A Rain Rain
5:00 PM 55.4 °F 53.6 °F 94% 29.83 in 5.0 mi North 3.5 mph - N/A Rain Light Rain
5:30 PM 55.4 °F 53.6 °F 94% 29.83 in 3.7 mi North 3.5 mph - N/A Rain Light Rain
5:50 PM 55.4 °F 53.6 °F 94% 29.83 in 6.2 mi NW 3.5 mph - N/A Rain Light Rain
6:00 PM 55.4 °F 53.6 °F 94% 29.83 in 6.2 mi NW 4.6 mph - N/A Rain Light Rain
6:30 PM 53.6 °F 50.0 °F 88% 29.83 in 6.2 mi NNW 5.8 mph - N/A   Scattered Clouds
7:00 PM 53.6 °F 48.2 °F 82% 29.86 in 6.2 mi Variable 2.3 mph - N/A   Scattered Clouds
7:19 PM 53.6 °F 48.2 °F 82% 29.86 in 6.2 mi WNW 2.3 mph - N/A Rain Light Rain
7:30 PM 53.6 °F 50.0 °F 88% 29.86 in 6.2 mi Variable 1.2 mph - N/A Rain Light Rain
8:00 PM 51.8 °F 50.0 °F 94% 29.86 in - Variable 2.3 mph - N/A   Clear
8:30 PM 51.8 °F 50.0 °F 94% 29.86 in - Variable 2.3 mph - N/A   Clear
9:00 PM 51.8 °F 50.0 °F 94% 29.86 in - Calm Calm - N/A   Clear
9:30 PM 51.8 °F 50.0 °F 94% 29.89 in - Calm Calm - N/A   Clear
10:00 PM 50.0 °F 50.0 °F 100% 29.89 in - Variable 1.2 mph - N/A   Clear
11:00 PM 50.0 °F 48.2 °F 94% 29.92 in 6.2 mi Calm Calm - N/A   Scattered Clouds